User: anonymous   Login
Location: Unspecified
(0.0000°N, 0.0000°E)
Time: 02:54:59
(UTC+00:00)
Language:

DSCS III A-2 - Orbit

View from above orbital plane
View from above orbital plane
View from above satellite
View from above satellite

Ground track
Ground track

The orbit data is extracted from the following two-line orbital elements,

1 20203U 89069B   18269.57465376 0.00000000  00000-0  00000-0 0    01
2 20203  13.4100  25.9142 0013381 310.2337  49.6301  0.99114163    03
Epoch (UTC): 26 September 2018 13:47:30
Eccentricity: 0.0013381
inclination: 13.4100°
perigee height: 36057 km
apogee height: 36171 km
right ascension of ascending node: 25.9142°
argument of perigee: 310.2337°
revolutions per day: 0.99114163
mean anomaly at epoch: 49.6301°
orbit number at epoch: 0

The dashed part of the orbit path shows where the satellite is in the earth's shadow,  

DLR